Regional Weather Roundup
Issued by NWS

Home | Current Version | Previous Version | Text Only | Print | Product List | Glossary On
Versions: 1 2 3 4 5 6 7 8 9 10 11 12 13 14 15 16 17 18 19 20 21 22 23 24 25 26 27 28 29 30 31 32 33 34 35 36 37 38 39 40 41 42 43 44 45 46 47 48 49 50
000
ASUS43 KOAX 222303
RWRNE

WEATHER ROUNDUP FOR NEBRASKA
NATIONAL WEATHER SERVICE OMAHA NE
600 PM CDT TUE MAY 22 2018

NOTES: SATELLITE DATA IS BEING USED TO AUGMENT CLOUD COVER ABOVE
       12000 FEET.
       "FAIR" INDICATES FEW OR NO CLOUDS BELOW 12,000 FEET WITH NO
       SIGNIFICANT WEATHER AND/OR OBSTRUCTIONS TO VISIBILITY.


NEZ001>004-019>022-054>056-230000-
NEBRASKA PANHANDLE

CITY           SKY/WX    TMP DP  RH WIND       PRES   REMARKS
SCOTTSBLUFF    MOSUNNY   77  55  46 SE17      29.86F
ALLIANCE       MOSUNNY   77  53  43 S22G28    29.89F
CHADRON        CLOUDY    75  55  49 E18       29.85F
GORDON         FAIR      82  54  37 S15G23    29.87F
KIMBALL        MOSUNNY   74  52  46 SE17G24   29.91F
SIDNEY         MOSUNNY   79  50  36 SE18G25   29.89F
$$

NEZ057>060-069>072-079>082-230000-
SOUTHWEST NEBRASKA

CITY           SKY/WX    TMP DP  RH WIND       PRES   REMARKS
NORTH PLATTE   PTSUNNY   80  59  48 SE13      29.88F
IMPERIAL       PTSUNNY   84  52  33 S20G28    29.87F
LEXINGTON      CLOUDY    82  59  44 S10       29.89F
MCCOOK         CLOUDY    83  58  42 SE18G30   29.86F
OGALLALA       CLOUDY    78  61  54 SE10G20   29.88S
$$

NEZ005>010-023>029-035>040-094-230000-
NORTH CENTRAL NEBRASKA

CITY           SKY/WX    TMP DP  RH WIND       PRES   REMARKS
VALENTINE      PTSUNNY   83  62  49 SE13      29.88F
AINSWORTH      CLOUDY    80  65  59 SE9       29.90F
BROKEN BOW     PTSUNNY   82  63  52 SE10      29.91F
O`NEILL        CLOUDY    82  68  61 S3        29.91F
ORD            PTSUNNY   83  62  49 SE8       29.89F
THEDFORD       CLOUDY    82  58  43 SE16      29.92S
$$

NEZ041-046>049-061>064-073>077-083>087-230000-
SOUTH CENTRAL NEBRASKA

CITY           SKY/WX    TMP DP  RH WIND       PRES   REMARKS
GRAND ISLAND   SUNNY     85  62  46 S13       29.91S
AURORA         MOSUNNY   87  58  37 S14G21    29.91S
HASTINGS       PTSUNNY   85  61  44 S13G22    29.92S
HEBRON         CLOUDY    89  56  33 S15       29.92S
HOLDREGE       MOSUNNY   86  55  34 S17G24    29.90F
KEARNEY        MOSUNNY   84  59  42 S18       29.90F
YORK           MOSUNNY   86  63  45 S14G23    29.91S
$$

NEZ011>018-030>034-042>045-230000-
NORTHEAST NEBRASKA

CITY           SKY/WX    TMP DP  RH WIND       PRES   REMARKS
NORFOLK        MOSUNNY   86  63  45 S9        29.88S
ALBION         MOSUNNY   85  65  51 S8        29.91F
BLAIR          PTSUNNY   83  65  54 SE17      29.93F
COLUMBUS       MOSUNNY   90  63  40 S15       29.90F HX  91
FREMONT        MOSUNNY   86  67  52 SE14G20   29.92S
TEKAMAH        CLOUDY    80  69  69 SE14      29.92F
WAYNE          CLOUDY    81  74  79 SE16      29.91S
$$

NEZ050>053-065>068-078-088>093-230000-
SOUTHEAST NEBRASKA

CITY           SKY/WX    TMP DP  RH WIND       PRES   REMARKS
LINCOLN        SUNNY     87  61  41 S14       29.91F
OMAHA EPPLEY   PTSUNNY   84  63  49 SE20G25   29.92F
BEATRICE       SUNNY     88  63  42 S14       29.92S
FALLS CITY     SUNNY     86  60  41 S14G23    29.94S
NEBRASKA CITY  MOSUNNY   86  61  43 S14       29.94S
PLATTSMOUTH    MOSUNNY   84  66  54 SE12G17   29.94S
$$

NEZ044-045-051>053-067-230000-
OMAHA AREA

CITY           SKY/WX    TMP DP  RH WIND       PRES   REMARKS
OMAHA EPPLEY   PTSUNNY   84  63  49 SE20G25   29.92F
BLAIR          PTSUNNY   83  65  54 SE17      29.93F
FREMONT        MOSUNNY   86  67  52 SE14G20   29.92S
MILLARD        MOSUNNY   84  67  56 SE13G20   29.93S
OFFUTT AFB     PTSUNNY   84  66  53 SE13      29.92F
PLATTSMOUTH    MOSUNNY   84  66  54 SE12G17   29.94S
WAHOO          FAIR      89  55  31 S16       29.92S
$$



USA.gov is the U.S. government's official web portal to all federal, state and local government web resources and services.